Location: Pine Mountain Observatory
(43.7910°N, 120.9377°W)
Time: 16:04:29
(UTC-07:00)

Tiros 1 - All Passes

Search period start: 26 May 2019 00:00
Search period end: 05 June 2019 00:00
Orbit: 630 x 664 km, 48.4° (Epoch: 26 May)

Date Brightness Start Highest point End Pass type
(mag) Time Alt. Az. Time Alt. Az. Time Alt. Az.
26 May - 09:15:52 10° S 09:19:15 20° SE 09:22:39 10° E daylight
26 May - 10:56:19 10° WSW 11:00:56 81° SSE 11:05:37 10° ENE daylight
26 May - 12:38:52 10° W 12:43:23 49° N 12:47:59 10° ENE daylight
26 May - 14:21:28 10° WNW 14:26:06 57° NNE 14:30:46 10° E daylight
26 May - 16:03:45 10° WNW 16:08:22 55° SSW 16:13:00 10° SE daylight
26 May - 17:47:53 10° WSW 17:49:49 12° SW 17:51:45 10° SSW daylight
27 May - 09:40:41 10° SSW 09:45:00 41° SE 09:49:22 10° ENE daylight
27 May - 11:22:29 10° W 11:27:06 65° NNW 11:31:46 10° ENE daylight
27 May - 13:05:14 10° WNW 13:09:45 47° N 13:14:19 10° ENE daylight
27 May - 14:47:36 10° WNW 14:52:19 82° NNE 14:57:04 10° ESE daylight
27 May - 16:30:11 10° W 16:34:13 28° SW 16:38:16 10° SSE daylight
28 May - 08:26:07 10° S 08:29:19 19° SE 08:32:32 10° E daylight
28 May - 10:06:21 10° WSW 10:10:57 77° SSE 10:15:37 10° ENE daylight
28 May - 11:48:52 10° W 11:53:23 50° N 11:57:58 10° ENE daylight
28 May - 13:31:30 10° WNW 13:36:06 56° NNE 13:40:44 10° E daylight
28 May - 15:13:46 10° WNW 15:18:23 59° SSW 15:23:02 10° SE daylight
28 May - 16:57:35 10° WSW 16:59:53 13° SW 17:02:10 10° SSW daylight
29 May - 08:50:48 10° SSW 08:55:03 38° SE 08:59:21 10° ENE daylight
29 May - 10:32:30 10° WSW 10:37:06 68° NNW 10:41:46 10° ENE daylight
29 May - 12:15:15 10° WNW 12:19:45 47° N 12:24:17 10° ENE daylight
29 May - 13:57:38 10° WNW 14:02:19 79° NNE 14:07:04 10° ESE daylight
29 May - 15:40:09 10° W 15:44:16 30° SW 15:48:24 10° SSE daylight
30 May - 07:36:23 10° S 07:39:23 17° SE 07:42:24 10° E daylight
30 May - 09:16:24 10° SW 09:21:00 72° SSE 09:25:37 10° ENE daylight
30 May - 10:58:52 10° W 11:03:23 51° N 11:07:57 10° ENE daylight
30 May - 12:41:31 10° WNW 12:46:05 54° NNE 12:50:42 10° E daylight
30 May - 14:23:47 10° WNW 14:28:24 62° SSW 14:33:04 10° SE daylight
30 May - 16:07:22 10° W 16:09:57 15° SW 16:12:31 10° SSW daylight
31 May - 08:00:55 10° SSW 08:05:06 35° SE 08:09:19 10° ENE daylight
31 May - 09:42:30 10° WSW 09:47:07 71° NNW 09:51:46 10° ENE daylight
31 May - 11:25:15 10° WNW 11:29:44 47° N 11:34:16 10° ENE daylight
31 May - 13:07:39 10° WNW 13:12:20 75° NNE 13:17:03 10° ESE daylight
31 May - 14:50:08 10° WNW 14:54:19 32° SW 14:58:30 10° SSE daylight
01 Jun - 06:46:42 10° S 06:49:28 16° SE 06:52:15 10° E daylight
01 Jun - 08:26:27 10° SW 08:31:02 68° SSE 08:35:38 10° ENE daylight
01 Jun - 10:08:51 10° W 10:13:23 52° N 10:17:56 10° ENE daylight
01 Jun - 11:51:32 10° WNW 11:56:05 53° N 12:00:41 10° E daylight
01 Jun - 13:33:48 10° WNW 13:38:26 66° SSW 13:43:06 10° SE daylight
01 Jun - 15:17:12 10° W 15:20:00 16° SW 15:22:50 10° S daylight
02 Jun - 07:11:03 10° SSW 07:15:09 33° SE 07:19:17 10° ENE daylight
02 Jun - 08:52:31 10° WSW 08:57:07 74° NNW 09:01:46 10° ENE daylight
02 Jun - 10:35:15 10° WNW 10:39:43 47° N 10:44:14 10° ENE daylight
02 Jun - 12:17:41 10° WNW 12:22:20 72° NNE 12:27:02 10° ESE daylight
02 Jun - 14:00:07 10° WNW 14:04:20 35° SW 14:08:36 10° SSE daylight
03 Jun - 05:57:01 10° SSE 05:59:32 15° SE 06:02:04 10° E daylight
03 Jun - 07:36:30 10° SW 07:41:03 64° SSE 07:45:38 10° ENE daylight
03 Jun - 09:18:51 10° W 09:23:23 53° N 09:27:56 10° ENE daylight
03 Jun - 11:01:33 10° WNW 11:06:05 51° N 11:10:39 10° E daylight
03 Jun - 12:43:49 10° WNW 12:48:28 71° SSW 12:53:07 10° SE daylight
03 Jun - 14:27:03 10° W 14:30:04 17° SW 14:33:06 10° S daylight
04 Jun - 06:21:11 10° SSW 06:25:13 30° SE 06:29:15 10° E daylight
04 Jun - 08:02:31 10° WSW 08:07:08 77° NNW 08:11:47 10° ENE daylight
04 Jun - 09:45:15 10° WNW 09:49:43 47° N 09:54:13 10° ENE daylight
04 Jun - 11:27:43 10° WNW 11:32:21 69° NNE 11:37:01 10° ESE daylight
04 Jun - 13:10:06 10° WNW 13:14:23 37° SW 13:18:42 10° SSE daylight
